FW9926 Weather Reports


Display with metric or nautical units.
time (UTC)temp
F
wind
direction
speed
MPH
gust
MPH
rain 1hr
in
rain 24hr
in
rain mn
in
humidity
%
barometer
mb
20260504040113 38 196 4.0 11.0 0.00 0.00 0.00 96 1016.6
20260504034552 39 168 2.0 10.0 0.00 0.00 0.00 96 1016.6
20260504033052 39 160 5.0 15.0 0.00 0.00 0.00 95 1016.4
20260504031551 39 161 5.0 11.0 0.00 0.00 0.00 96 1016.2
20260504030048 39 143 4.0 12.0 0.00 0.00 0.00 95 1016.1
20260504024551 39 116 6.0 13.0 0.00 0.00 0.00 95 1015.9
20260504023057 40 165 4.0 12.0 0.00 0.00 0.00 94 1016.0
20260504021551 40 178 6.0 14.0 0.00 0.00 0.00 93 1015.8
20260504020049 41 138 6.0 12.0 0.00 0.00 0.00 92 1015.8
20260504014600 42 171 4.0 10.0 0.00 0.00 0.00 92 1015.7
20260504013049 43 181 4.0 11.0 0.00 0.00 0.00 91 1015.8
20260504011548 45 164 5.0 10.0 0.00 0.00 0.00 88 1015.8
20260504010052 45 182 6.0 10.0 0.00 0.00 0.00 88 1015.8
20260504004551 46 143 2.0 8.0 0.00 0.00 0.00 87 1016.0
20260504003055 49 144 2.0 8.0 0.00 0.00 0.00 81 1016.0
20260504001604 51 0 1.0 10.0 0.00 0.00 0.00 76 1015.8
20260504000108 52 163 3.0 8.0 0.00 0.00 0.00 68 1015.9
20260503234549 53 143 2.0 9.0 0.00 0.00 0.00 69 1015.9
20260503233048 53 178 3.0 11.0 0.00 0.00 0.00 63 1016.1
20260503231543 54 169 2.0 13.0 0.00 0.00 0.00 66 1016.5
20260503230050 54 155 3.0 11.0 0.00 0.00 0.00 66 1016.5
20260503224549 55 187 3.0 8.0 0.00 0.00 0.00 64 1016.4
20260503223050 56 0 1.0 7.0 0.00 0.00 0.00 65 1016.5
20260503221553 56 141 2.0 11.0 0.00 0.00 0.00 72 1016.4
20260503220052 56 95 3.0 11.0 0.00 0.00 0.00 70 1016.6
20260503214549 57 159 4.0 10.0 0.00 0.00 0.00 58 1016.6
20260503213052 58 171 5.0 11.0 0.00 0.00 0.00 60 1016.5
20260503211549 58 167 5.0 11.0 0.00 0.00 0.00 59 1016.6
20260503210054 58 148 3.0 10.0 0.00 0.00 0.00 63 1016.7
20260503204550 58 149 3.0 9.0 0.00 0.00 0.00 58 1016.7
20260503203052 56 189 3.0 10.0 0.00 0.00 0.00 68 1016.9
20260503201554 57 142 6.0 13.0 0.00 0.00 0.00 55 1017.1
20260503200059 59 159 6.0 13.0 0.00 0.00 0.00 48 1017.1
20260503194557 59 154 7.0 15.0 0.00 0.00 0.00 46 1017.3
20260503193057 60 145 6.0 14.0 0.00 0.00 0.00 40 1017.5
20260503191549 60 161 7.0 18.0 0.00 0.00 0.00 41 1017.6
20260503190052 60 147 8.0 15.0 0.00 0.00 0.00 41 1017.7
20260503184548 60 212 5.0 16.0 0.00 0.00 0.00 45 1017.8
20260503183107 60 186 8.0 16.0 0.00 0.00 0.00 42 1017.6
20260503181614 60 150 6.0 17.0 0.00 0.00 0.00 41 1017.9
20260503180052 60 137 7.0 16.0 0.00 0.00 0.00 41 1017.8
20260503174553 60 184 9.0 19.0 0.00 0.00 0.00 40 1017.9
20260503173056 61 132 6.0 17.0 0.00 0.00 0.00 40 1017.8
20260503171555 60 127 7.0 18.0 0.00 0.00 0.00 44 1017.8
20260503100104 55 139 2.0 4.0 0.00 0.00 0.00 35 1017.1
20260503081553 56 150 2.0 5.0 0.00 0.00 0.00 33 1018.6
20260503071558 56 0 0.0 0.0 0.00 0.00 0.00 30 1018.9
20260503070110 56 0 0.0 0.0 0.00 0.00 0.00 30 1019.3
20260503060116 58 0 0.0 0.0 0.00 0.00 0.00 28 1019.6
20260503054559 58 0 0.0 5.0 0.00 0.00 0.00 29 1019.7
20260503053051 58 0 0.0 0.0 0.00 0.00 0.00 29 1019.5
20260503051553 58 148 1.0 7.0 0.00 0.00 0.00 29 1019.7
20260503050053 58 0 0.0 0.0 0.00 0.00 0.00 28 1019.6
20260503044551 58 0 0.0 0.0 0.00 0.00 0.00 29 1019.7
20260503043050 58 0 0.0 0.0 0.00 0.00 0.00 29 1019.5
20260503041555 58 0 0.0 0.0 0.00 0.00 0.00 30 1019.2